Time,TemperatureF,DewpointF,PressureIn,WindDirection,WindDirectionDegrees,WindSpeedMPH,WindSpeedGustMPH,Humidity,HourlyPrecipIn,Conditions,Clouds,dailyrainin,SoftwareType,DateUTC
2013-06-23 00:00:00,70.6,70.3,30.13,NNW,348,0.0,0.0,99,0.00,,,0.02,Wunderground v.1.15,2013-06-23 04:00:00,
2013-06-23 00:05:00,70.6,70.3,30.13,NNW,348,0.0,0.0,99,0.00,,,0.00,Wunderground v.1.15,2013-06-23 04:05:00,
2013-06-23 00:10:00,70.6,70.3,30.13,NNW,348,0.0,0.0,99,0.00,,,0.00,Wunderground v.1.15,2013-06-23 04:10:00,
2013-06-23 00:15:00,70.5,70.2,30.13,NNW,348,0.0,0.0,99,0.00,,,0.00,Wunderground v.1.15,2013-06-23 04:15:00,
2013-06-23 00:25:00,70.5,70.2,30.13,NNW,348,0.0,0.0,99,0.00,,,0.00,Wunderground v.1.15,2013-06-23 04:25:00,
2013-06-23 00:30:00,70.5,70.2,30.13,NNW,348,0.0,0.0,99,0.00,,,0.00,Wunderground v.1.15,2013-06-23 04:30:00,
2013-06-23 00:35:00,70.4,70.1,30.14,NNW,348,0.0,0.0,99,0.00,,,0.00,Wunderground v.1.15,2013-06-23 04:35:00,
2013-06-23 00:45:00,70.3,70.0,30.14,NNW,348,0.0,0.0,99,0.00,,,0.00,Wunderground v.1.15,2013-06-23 04:45:00,
2013-06-23 00:55:00,70.2,69.9,30.14,NNW,348,0.0,0.0,99,0.00,,,0.00,Wunderground v.1.15,2013-06-23 04:55:00,
2013-06-23 01:05:00,70.2,69.9,30.14,NNW,348,0.0,0.0,99,0.00,,,0.00,Wunderground v.1.15,2013-06-23 05:05:00,
2013-06-23 01:10:00,70.2,69.9,30.14,NNW,348,0.0,0.0,99,0.00,,,0.00,Wunderground v.1.15,2013-06-23 05:10:00,
2013-06-23 01:20:00,70.3,70.0,30.14,NNW,348,0.0,0.0,99,0.00,,,0.00,Wunderground v.1.15,2013-06-23 05:20:00,
2013-06-23 01:30:00,70.3,70.3,30.14,NNW,348,0.0,0.0,100,0.00,,,0.00,Wunderground v.1.15,2013-06-23 05:30:00,
2013-06-23 01:40:00,70.3,70.3,30.13,NNW,348,0.0,0.0,100,0.00,,,0.00,Wunderground v.1.15,2013-06-23 05:40:00,
2013-06-23 01:50:00,70.2,70.2,30.13,NNW,348,0.0,0.0,100,0.00,,,0.00,Wunderground v.1.15,2013-06-23 05:50:00,
2013-06-23 02:00:00,69.9,69.6,30.13,NNW,348,0.0,0.0,99,0.00,,,0.00,Wunderground v.1.15,2013-06-23 06:00:00,
2013-06-23 02:05:00,69.8,69.5,30.13,NNW,348,0.0,0.0,99,0.00,,,0.00,Wunderground v.1.15,2013-06-23 06:05:00,
2013-06-23 02:15:00,69.5,69.2,30.13,NNW,348,0.0,0.0,99,0.00,,,0.00,Wunderground v.1.15,2013-06-23 06:15:00,
2013-06-23 02:25:00,69.3,69.0,30.12,NNW,348,0.0,0.0,99,0.00,,,0.00,Wunderground v.1.15,2013-06-23 06:25:00,
2013-06-23 02:35:00,69.1,68.8,30.12,NNW,348,0.0,0.0,99,0.00,,,0.00,Wunderground v.1.15,2013-06-23 06:35:00,
2013-06-23 02:45:00,68.9,68.6,30.13,NNW,348,0.0,0.0,99,0.00,,,0.00,Wunderground v.1.15,2013-06-23 06:45:00,
2013-06-23 02:55:00,68.8,68.5,30.13,NNW,348,0.0,0.0,99,0.00,,,0.00,Wunderground v.1.15,2013-06-23 06:55:00,
2013-06-23 03:00:00,68.6,68.3,30.13,NNW,348,0.0,0.0,99,0.00,,,0.00,Wunderground v.1.15,2013-06-23 07:00:00,
2013-06-23 03:10:00,68.4,68.1,30.13,NNW,348,0.0,0.0,99,0.00,,,0.00,Wunderground v.1.15,2013-06-23 07:10:00,
2013-06-23 03:20:00,68.1,67.8,30.13,NNW,348,0.0,0.0,99,0.00,,,0.00,Wunderground v.1.15,2013-06-23 07:20:00,
2013-06-23 03:30:00,68.1,67.8,30.13,NNW,348,0.0,0.0,99,0.00,,,0.00,Wunderground v.1.15,2013-06-23 07:30:00,
2013-06-23 03:40:00,67.9,67.6,30.13,NNW,348,0.0,0.0,99,0.00,,,0.00,Wunderground v.1.15,2013-06-23 07:40:00,
2013-06-23 03:50:00,67.7,67.4,30.13,NNW,348,0.0,0.0,99,0.00,,,0.00,Wunderground v.1.15,2013-06-23 07:50:00,
2013-06-23 04:00:00,67.7,67.4,30.13,NNW,348,0.0,0.0,99,0.00,,,0.00,Wunderground v.1.15,2013-06-23 08:00:00,
2013-06-23 04:10:00,67.7,67.7,30.13,NNW,348,0.0,0.0,100,0.00,,,0.00,Wunderground v.1.15,2013-06-23 08:10:00,
2013-06-23 04:20:00,67.4,67.1,30.13,NNW,348,0.0,0.0,99,0.00,,,0.00,Wunderground v.1.15,2013-06-23 08:20:00,
2013-06-23 04:25:00,67.4,67.1,30.13,NNW,348,0.0,0.0,99,0.00,,,0.00,Wunderground v.1.15,2013-06-23 08:25:00,
2013-06-23 04:35:00,67.3,67.0,30.13,NNW,348,0.0,0.0,99,0.00,,,0.00,Wunderground v.1.15,2013-06-23 08:35:00,
2013-06-23 04:45:00,67.2,66.9,30.13,NNW,348,0.0,0.0,99,0.00,,,0.00,Wunderground v.1.15,2013-06-23 08:45:00,
2013-06-23 04:55:00,67.1,66.8,30.13,NNW,348,0.0,0.0,99,0.00,,,0.00,Wunderground v.1.15,2013-06-23 08:55:00,
2013-06-23 05:05:00,67.1,67.1,30.13,NNW,348,0.0,0.0,100,0.00,,,0.00,Wunderground v.1.15,2013-06-23 09:05:00,
2013-06-23 05:10:00,67.1,67.1,30.13,NNW,348,0.0,0.0,100,0.00,,,0.00,Wunderground v.1.15,2013-06-23 09:10:00,
2013-06-23 05:20:00,67.2,67.2,30.14,NNW,348,0.0,0.0,100,0.00,,,0.00,Wunderground v.1.15,2013-06-23 09:20:00,
2013-06-23 05:30:00,67.3,67.3,30.14,NNW,348,0.0,0.0,100,0.00,,,0.00,Wunderground v.1.15,2013-06-23 09:30:00,
2013-06-23 05:40:00,67.2,67.2,30.14,NNW,348,0.0,0.0,100,0.00,,,0.00,Wunderground v.1.15,2013-06-23 09:40:00,
2013-06-23 05:50:00,67.2,67.2,30.14,NNW,348,0.0,0.0,100,0.00,,,0.00,Wunderground v.1.15,2013-06-23 09:50:00,
2013-06-23 06:00:00,67.0,67.0,30.14,NNW,348,0.0,0.0,100,0.00,,,0.00,Wunderground v.1.15,2013-06-23 10:00:00,
2013-06-23 06:10:00,66.8,66.8,30.14,NNW,348,0.0,0.0,100,0.00,,,0.00,Wunderground v.1.15,2013-06-23 10:10:00,
2013-06-23 06:15:00,66.8,66.8,30.14,NNW,348,0.0,0.0,100,0.00,,,0.00,Wunderground v.1.15,2013-06-23 10:15:00,
2013-06-23 06:25:00,66.8,66.8,30.14,NNW,348,0.0,0.0,100,0.00,,,0.00,Wunderground v.1.15,2013-06-23 10:25:00,
2013-06-23 06:35:00,66.9,66.9,30.14,NNW,348,0.0,0.0,100,0.00,,,0.00,Wunderground v.1.15,2013-06-23 10:35:00,
2013-06-23 06:45:00,66.8,66.8,30.15,NNW,348,0.0,0.0,100,0.00,,,0.00,Wunderground v.1.15,2013-06-23 10:45:00,
2013-06-23 06:55:00,66.8,66.8,30.15,NNW,348,0.0,0.0,100,0.00,,,0.00,Wunderground v.1.15,2013-06-23 10:55:00,
2013-06-23 07:05:00,67.2,67.2,30.15,NNW,348,0.0,0.0,100,0.00,,,0.00,Wunderground v.1.15,2013-06-23 11:05:00,
2013-06-23 07:15:00,67.4,67.4,30.16,NNW,348,0.0,0.0,100,0.00,,,0.00,Wunderground v.1.15,2013-06-23 11:15:00,
2013-06-23 07:20:00,67.5,67.5,30.16,NNW,348,0.0,0.0,100,0.00,,,0.00,Wunderground v.1.15,2013-06-23 11:20:00,
2013-06-23 07:30:00,68.4,68.4,30.16,NNW,348,0.0,0.0,100,0.00,,,0.00,Wunderground v.1.15,2013-06-23 11:30:00,
2013-06-23 07:40:00,69.2,69.2,30.16,NNW,348,0.0,0.0,100,0.00,,,0.00,Wunderground v.1.15,2013-06-23 11:40:00,
2013-06-23 07:45:00,69.5,69.5,30.16,NNW,348,0.0,0.0,100,0.00,,,0.00,Wunderground v.1.15,2013-06-23 11:45:00,
2013-06-23 07:55:00,69.7,69.7,30.16,NNW,348,0.0,0.0,100,0.00,,,0.00,Wunderground v.1.15,2013-06-23 11:55:00,
2013-06-23 08:05:00,70.4,70.4,30.16,NNW,348,0.0,0.0,100,0.00,,,0.00,Wunderground v.1.15,2013-06-23 12:05:00,
2013-06-23 08:10:00,70.6,70.6,30.17,NNW,348,0.0,0.0,100,0.00,,,0.00,Wunderground v.1.15,2013-06-23 12:10:00,
2013-06-23 08:20:00,71.0,71.0,30.17,NNW,348,0.0,0.0,100,0.00,,,0.00,Wunderground v.1.15,2013-06-23 12:20:00,
2013-06-23 08:30:00,71.7,71.7,30.17,NNW,348,0.0,0.0,100,0.00,,,0.00,Wunderground v.1.15,2013-06-23 12:30:00,
2013-06-23 08:40:00,72.4,72.4,30.18,NNW,348,0.0,0.0,100,0.00,,,0.00,Wunderground v.1.15,2013-06-23 12:40:00,
2013-06-23 08:50:00,72.6,72.6,30.18,NNW,348,0.0,0.0,100,0.00,,,0.00,Wunderground v.1.15,2013-06-23 12:50:00,
2013-06-23 09:00:00,73.0,73.0,30.19,NNW,348,0.0,0.0,100,0.00,,,0.00,Wunderground v.1.15,2013-06-23 13:00:00,
2013-06-23 09:10:00,73.8,73.8,30.19,NNW,348,0.0,0.0,100,0.00,,,0.00,Wunderground v.1.15,2013-06-23 13:10:00,
2013-06-23 09:20:00,74.5,73.3,30.19,NNW,348,0.0,0.0,96,0.00,,,0.00,Wunderground v.1.15,2013-06-23 13:20:00,
2013-06-23 09:25:00,74.8,73.6,30.19,NNW,348,0.0,2.0,96,0.00,,,0.00,Wunderground v.1.15,2013-06-23 13:25:00,
2013-06-23 09:35:00,75.4,73.2,30.19,NNE,33,0.0,1.0,93,0.00,,,0.00,Wunderground v.1.15,2013-06-23 13:35:00,
2013-06-23 09:45:00,75.7,72.9,30.19,NNE,33,0.0,1.0,91,0.00,,,0.00,Wunderground v.1.15,2013-06-23 13:45:00,
2013-06-23 09:55:00,75.9,72.8,30.19,NNE,33,0.0,0.0,90,0.00,,,0.00,Wunderground v.1.15,2013-06-23 13:55:00,
2013-06-23 10:05:00,76.7,73.9,30.19,NNE,33,0.0,0.0,91,0.00,,,0.00,Wunderground v.1.15,2013-06-23 14:05:00,
2013-06-23 10:15:00,77.3,73.5,30.19,NNE,33,0.0,1.0,88,0.00,,,0.00,Wunderground v.1.15,2013-06-23 14:15:00,
2013-06-23 10:25:00,77.7,73.2,30.18,NNE,33,0.0,1.0,86,0.00,,,0.00,Wunderground v.1.15,2013-06-23 14:25:00,
2013-06-23 10:35:00,78.0,73.5,30.18,NNE,33,1.0,1.0,86,0.00,,,0.00,Wunderground v.1.15,2013-06-23 14:35:00,
2013-06-23 10:45:00,78.9,73.7,30.18,NNE,15,0.0,1.0,84,0.00,,,0.00,Wunderground v.1.15,2013-06-23 14:45:00,
2013-06-23 10:50:00,79.2,73.6,30.18,ESE,118,0.0,3.0,83,0.00,,,0.00,Wunderground v.1.15,2013-06-23 14:50:00,
2013-06-23 11:00:00,79.0,73.7,30.18,SE,144,1.0,1.0,84,0.00,,,0.00,Wunderground v.1.15,2013-06-23 15:00:00,
2013-06-23 11:10:00,78.9,73.3,30.19,SE,141,0.0,0.0,83,0.00,,,0.00,Wunderground v.1.15,2013-06-23 15:10:00,
2013-06-23 11:15:00,79.2,74.3,30.19,SE,145,0.0,0.0,85,0.00,,,0.00,Wunderground v.1.15,2013-06-23 15:15:00,
2013-06-23 11:25:00,80.0,74.7,30.18,South,183,0.0,1.0,84,0.00,,,0.00,Wunderground v.1.15,2013-06-23 15:25:00,
2013-06-23 11:30:00,80.2,73.8,30.18,SE,134,0.0,1.0,81,0.00,,,0.00,Wunderground v.1.15,2013-06-23 15:30:00,
2013-06-23 11:40:00,80.8,73.3,30.18,North,360,1.0,1.0,78,0.00,,,0.00,Wunderground v.1.15,2013-06-23 15:40:00,
2013-06-23 11:50:00,81.5,74.4,30.18,North,360,0.0,1.0,79,0.00,,,0.00,Wunderground v.1.15,2013-06-23 15:50:00,
2013-06-23 12:00:00,82.4,74.1,30.17,NE,39,0.0,0.0,76,0.00,,,0.00,Wunderground v.1.15,2013-06-23 16:00:00,
2013-06-23 12:10:00,83.1,73.5,30.17,SSE,159,1.0,1.0,73,0.00,,,0.00,Wunderground v.1.15,2013-06-23 16:10:00,
2013-06-23 12:20:00,83.8,75.0,30.17,West,281,1.0,1.0,75,0.00,,,0.00,Wunderground v.1.15,2013-06-23 16:20:00,
2013-06-23 12:30:00,83.8,74.2,30.17,NW,313,1.0,1.0,73,0.00,,,0.00,Wunderground v.1.15,2013-06-23 16:30:00,
2013-06-23 12:40:00,83.3,75.3,30.16,NW,313,0.0,0.0,77,0.00,,,0.00,Wunderground v.1.15,2013-06-23 16:40:00,
2013-06-23 12:50:00,83.7,73.3,30.16,NW,304,0.0,1.0,71,0.00,,,0.00,Wunderground v.1.15,2013-06-23 16:50:00,
2013-06-23 13:00:00,83.1,74.4,30.16,NW,304,0.0,0.0,75,0.00,,,0.00,Wunderground v.1.15,2013-06-23 17:00:00,
2013-06-23 13:05:00,82.0,75.6,30.16,NW,304,0.0,0.0,81,0.00,,,0.01,Wunderground v.1.15,2013-06-23 17:05:00,
2013-06-23 13:15:00,80.0,76.1,30.16,NW,304,0.0,0.0,88,0.00,,,0.01,Wunderground v.1.15,2013-06-23 17:15:00,
2013-06-23 13:20:00,79.4,76.2,30.16,NW,304,0.0,0.0,90,0.00,,,0.01,Wunderground v.1.15,2013-06-23 17:20:00,
2013-06-23 13:25:00,79.3,76.4,30.15,NW,304,0.0,0.0,91,0.00,,,0.01,Wunderground v.1.15,2013-06-23 17:25:00,
2013-06-23 13:30:00,79.6,77.7,30.15,NW,304,0.0,0.0,94,0.00,,,0.01,Wunderground v.1.15,2013-06-23 17:30:00,
2013-06-23 13:40:00,79.8,76.3,30.16,NW,304,0.0,0.0,89,0.00,,,0.01,Wunderground v.1.15,2013-06-23 17:40:00,
2013-06-23 13:50:00,78.8,76.3,30.16,NW,304,0.0,0.0,92,0.00,,,0.01,Wunderground v.1.15,2013-06-23 17:50:00,
2013-06-23 14:00:00,79.2,76.7,30.16,NW,304,0.0,1.0,92,0.00,,,0.01,Wunderground v.1.15,2013-06-23 18:00:00,
2013-06-23 14:05:00,79.2,75.7,30.16,West,261,1.0,1.0,89,0.00,,,0.01,Wunderground v.1.15,2013-06-23 18:05:00,
2013-06-23 14:10:00,79.1,75.9,30.15,West,261,1.0,1.0,90,0.00,,,0.01,Wunderground v.1.15,2013-06-23 18:10:00,
2013-06-23 14:20:00,79.6,77.1,30.15,West,261,0.0,0.0,92,0.00,,,0.01,Wunderground v.1.15,2013-06-23 18:20:00,
2013-06-23 14:25:00,80.3,76.4,30.15,West,261,0.0,1.0,88,0.00,,,0.01,Wunderground v.1.15,2013-06-23 18:25:00,
2013-06-23 14:35:00,81.4,77.5,30.15,West,267,1.0,1.0,88,0.00,,,0.01,Wunderground v.1.15,2013-06-23 18:35:00,
2013-06-23 14:45:00,81.9,77.3,30.14,West,267,0.0,0.0,86,0.00,,,0.01,Wunderground v.1.15,2013-06-23 18:45:00,
2013-06-23 14:55:00,82.1,76.4,30.14,West,267,1.0,1.0,83,0.00,,,0.01,Wunderground v.1.15,2013-06-23 18:55:00,
2013-06-23 15:00:00,81.6,75.6,30.14,SE,131,1.0,1.0,82,0.00,,,0.01,Wunderground v.1.15,2013-06-23 19:00:00,
2013-06-23 15:05:00,81.0,75.3,30.14,SE,131,1.0,1.0,83,0.00,,,0.01,Wunderground v.1.15,2013-06-23 19:05:00,
2013-06-23 15:15:00,80.4,74.4,30.13,SE,131,0.0,1.0,82,0.00,,,0.01,Wunderground v.1.15,2013-06-23 19:15:00,
2013-06-23 15:25:00,79.6,74.0,30.13,SE,131,0.0,1.0,83,0.00,,,0.01,Wunderground v.1.15,2013-06-23 19:25:00,
2013-06-23 15:35:00,79.9,76.0,30.12,SE,131,0.0,0.0,88,0.00,,,0.01,Wunderground v.1.15,2013-06-23 19:35:00,
2013-06-23 15:45:00,81.3,75.3,30.12,SE,134,0.0,0.0,82,0.00,,,0.01,Wunderground v.1.15,2013-06-23 19:45:00,
2013-06-23 15:55:00,81.5,75.5,30.11,NW,311,0.0,1.0,82,0.00,,,0.01,Wunderground v.1.15,2013-06-23 19:55:00,
2013-06-23 16:00:00,81.6,76.6,30.11,NW,311,0.0,0.0,85,0.00,,,0.01,Wunderground v.1.15,2013-06-23 20:00:00,
2013-06-23 16:10:00,82.3,76.6,30.10,NW,311,0.0,0.0,83,0.00,,,0.01,Wunderground v.1.15,2013-06-23 20:10:00,
2013-06-23 16:20:00,82.4,75.6,30.10,NW,311,0.0,0.0,80,0.00,,,0.01,Wunderground v.1.15,2013-06-23 20:20:00,
2013-06-23 16:30:00,81.8,76.1,30.11,NW,311,0.0,0.0,83,0.00,,,0.01,Wunderground v.1.15,2013-06-23 20:30:00,
2013-06-23 16:40:00,82.4,76.7,30.11,NW,311,0.0,0.0,83,0.00,,,0.01,Wunderground v.1.15,2013-06-23 20:40:00,
2013-06-23 16:50:00,82.4,76.0,30.11,NW,311,0.0,1.0,81,0.00,,,0.01,Wunderground v.1.15,2013-06-23 20:50:00,
2013-06-23 17:00:00,81.2,75.5,30.10,NW,311,0.0,0.0,83,0.00,,,0.01,Wunderground v.1.15,2013-06-23 21:00:00,
2013-06-23 17:10:00,80.5,74.9,30.10,NW,311,0.0,0.0,83,0.00,,,0.01,Wunderground v.1.15,2013-06-23 21:10:00,
2013-06-23 17:15:00,80.3,75.4,30.11,NW,311,0.0,0.0,85,0.00,,,0.01,Wunderground v.1.15,2013-06-23 21:15:00,
2013-06-23 17:25:00,79.9,75.3,30.10,NW,311,0.0,0.0,86,0.00,,,0.01,Wunderground v.1.15,2013-06-23 21:25:00,
2013-06-23 17:35:00,79.3,75.4,30.11,NW,311,0.0,0.0,88,0.00,,,0.01,Wunderground v.1.15,2013-06-23 21:35:00,
2013-06-23 17:45:00,78.9,76.0,30.10,NW,311,0.0,0.0,91,0.00,,,0.01,Wunderground v.1.15,2013-06-23 21:45:00,
2013-06-23 17:55:00,79.4,76.5,30.10,NW,311,0.0,0.0,91,0.00,,,0.01,Wunderground v.1.15,2013-06-23 21:55:00,
2013-06-23 18:05:00,79.8,75.2,30.10,NW,311,0.0,0.0,86,0.00,,,0.01,Wunderground v.1.15,2013-06-23 22:05:00,
2013-06-23 18:15:00,79.9,75.0,30.10,NW,311,0.0,0.0,85,0.00,,,0.01,Wunderground v.1.15,2013-06-23 22:15:00,
2013-06-23 18:25:00,79.6,75.0,30.10,NW,311,0.0,0.0,86,0.00,,,0.01,Wunderground v.1.15,2013-06-23 22:25:00,
2013-06-23 18:35:00,79.2,74.6,30.11,NW,311,0.0,0.0,86,0.00,,,0.01,Wunderground v.1.15,2013-06-23 22:35:00,
2013-06-23 18:40:00,78.9,75.0,30.11,NW,311,0.0,0.0,88,0.00,,,0.01,Wunderground v.1.15,2013-06-23 22:40:00,
2013-06-23 18:50:00,78.7,75.2,30.11,NW,311,0.0,0.0,89,0.00,,,0.01,Wunderground v.1.15,2013-06-23 22:50:00,
2013-06-23 19:00:00,78.4,74.9,30.11,NW,311,0.0,0.0,89,0.00,,,0.01,Wunderground v.1.15,2013-06-23 23:00:00,
2013-06-23 19:10:00,78.4,75.6,30.10,NW,311,0.0,0.0,91,0.00,,,0.01,Wunderground v.1.15,2013-06-23 23:10:00,
2013-06-23 19:20:00,79.0,75.8,30.10,NW,311,0.0,0.0,90,0.00,,,0.01,Wunderground v.1.15,2013-06-23 23:20:00,
2013-06-23 19:25:00,79.0,75.8,30.11,NW,311,0.0,0.0,90,0.00,,,0.01,Wunderground v.1.15,2013-06-23 23:25:00,
2013-06-23 19:35:00,79.4,76.2,30.11,NW,311,0.0,0.0,90,0.00,,,0.01,Wunderground v.1.15,2013-06-23 23:35:00,
2013-06-23 19:40:00,79.5,76.0,30.11,NW,311,0.0,0.0,89,0.00,,,0.01,Wunderground v.1.15,2013-06-23 23:40:00,
2013-06-23 19:50:00,79.1,75.6,30.11,NW,311,0.0,0.0,89,0.00,,,0.01,Wunderground v.1.15,2013-06-23 23:50:00,
2013-06-23 19:55:00,78.7,75.2,30.12,NW,311,0.0,0.0,89,0.00,,,0.01,Wunderground v.1.15,2013-06-23 23:55:00,
2013-06-23 20:05:00,78.4,75.6,30.12,NW,311,0.0,0.0,91,0.00,,,0.01,Wunderground v.1.15,2013-06-24 00:05:00,
2013-06-23 20:15:00,78.2,75.4,30.12,NW,311,0.0,0.0,91,0.00,,,0.01,Wunderground v.1.15,2013-06-24 00:15:00,
2013-06-23 20:25:00,77.7,74.9,30.11,NW,311,0.0,0.0,91,0.00,,,0.01,Wunderground v.1.15,2013-06-24 00:25:00,
2013-06-23 20:35:00,77.3,74.5,30.11,NW,311,0.0,0.0,91,0.00,,,0.01,Wunderground v.1.15,2013-06-24 00:35:00,
2013-06-23 20:45:00,76.9,74.4,30.11,NW,311,0.0,0.0,92,0.00,,,0.01,Wunderground v.1.15,2013-06-24 00:45:00,
2013-06-23 20:50:00,76.7,74.2,30.11,NW,311,0.0,0.0,92,0.00,,,0.01,Wunderground v.1.15,2013-06-24 00:50:00,
2013-06-23 21:00:00,76.5,74.3,30.12,NW,311,0.0,0.0,93,0.00,,,0.01,Wunderground v.1.15,2013-06-24 01:00:00,
2013-06-23 21:10:00,76.2,74.0,30.12,NW,311,0.0,0.0,93,0.00,,,0.01,Wunderground v.1.15,2013-06-24 01:10:00,
2013-06-23 21:20:00,76.1,73.9,30.12,NW,311,0.0,0.0,93,0.00,,,0.01,Wunderground v.1.15,2013-06-24 01:20:00,
2013-06-23 21:30:00,75.8,73.9,30.13,NW,311,0.0,0.0,94,0.00,,,0.01,Wunderground v.1.15,2013-06-24 01:30:00,
2013-06-23 21:40:00,75.8,73.9,30.13,NNE,13,0.0,0.0,94,0.00,,,0.01,Wunderground v.1.15,2013-06-24 01:40:00,
2013-06-23 21:50:00,75.7,73.8,30.13,NNE,13,0.0,0.0,94,0.00,,,0.01,Wunderground v.1.15,2013-06-24 01:50:00,
2013-06-23 22:00:00,75.6,73.8,30.13,NNE,13,0.0,0.0,94,0.00,,,0.01,Wunderground v.1.15,2013-06-24 02:00:00,
2013-06-23 22:10:00,75.4,73.6,30.13,NNE,13,0.0,0.0,94,0.00,,,0.01,Wunderground v.1.15,2013-06-24 02:10:00,
2013-06-23 22:15:00,75.3,73.5,30.14,NNE,13,0.0,0.0,94,0.00,,,0.01,Wunderground v.1.15,2013-06-24 02:15:00,
2013-06-23 22:25:00,75.1,73.3,30.14,NNE,13,0.0,0.0,94,0.00,,,0.01,Wunderground v.1.15,2013-06-24 02:25:00,
2013-06-23 22:35:00,74.8,72.6,30.14,NNE,13,0.0,0.0,93,0.00,,,0.01,Wunderground v.1.15,2013-06-24 02:35:00,
2013-06-23 22:45:00,74.5,72.3,30.14,NNE,13,0.0,0.0,93,0.00,,,0.01,Wunderground v.1.15,2013-06-24 02:45:00,
2013-06-23 22:55:00,74.3,72.5,30.14,NNE,13,0.0,0.0,94,0.00,,,0.01,Wunderground v.1.15,2013-06-24 02:55:00,
2013-06-23 23:05:00,74.0,72.2,30.14,NNE,13,0.0,0.0,94,0.00,,,0.01,Wunderground v.1.15,2013-06-24 03:05:00,
2013-06-23 23:15:00,73.7,71.9,30.14,NNE,13,0.0,0.0,94,0.00,,,0.01,Wunderground v.1.15,2013-06-24 03:15:00,
2013-06-23 23:25:00,73.5,72.0,30.14,NNE,13,0.0,0.0,95,0.00,,,0.01,Wunderground v.1.15,2013-06-24 03:25:00,
2013-06-23 23:35:00,73.3,71.8,30.15,NNE,13,0.0,0.0,95,0.00,,,0.01,Wunderground v.1.15,2013-06-24 03:35:00,
2013-06-23 23:40:00,73.3,71.8,30.15,NNE,13,0.0,0.0,95,0.00,,,0.01,Wunderground v.1.15,2013-06-24 03:40:00,
2013-06-23 23:50:00,73.1,71.6,30.15,NNE,13,0.0,0.0,95,0.00,,,0.01,Wunderground v.1.15,2013-06-24 03:50:00,